Location: Zagreb
(45.8000°N, 16.0000°E)
Time: 16:35:55
(UTC+01:00)

Tiros 1 despin weight - Pass Details

Date: 02 February 2020
Orbit: 594 x 642 km, 48.2° (Epoch: 25 February)

Event Time Altitude Azimuth Distance (km) Brightness Sun altitude
Rises 12:51:35 0° 288° (WNW) 2,873 ? 26.6°
Reaches altitude 10° 12:53:52 10° 287° (WNW) 1,975 ? 26.5°
Maximum altitude 12:58:24 75° 203° (SSW) 647 ? 26.4°
Drops below altitude 10° 13:03:00 10° 118° (ESE) 1,999 ? 26.2°
Sets 13:05:20 0° 117° (ESE) 2,912 ? 26.1°
